Location: Home
(42.5358°N, 72.7383°W)
Time: 09:21:41
(UTC-05:00)

Transit 4A - Pass Details

Date: 06 December 2021
Orbit: 864 x 981 km, 66.8° (Epoch: 21 January)

Event Time Altitude Azimuth Distance (km) Brightness Sun altitude
Exits shadow 05:35:55 11° 241° (WSW) 2,624 9.8 -16.1°
Drops below altitude 10° 05:36:40 10° 235° (SW) 2,720 10.0 -16.0°
Sets 05:40:54 0° 208° (SSW) 3,668 10.9 -15.2°
